EW6511 Weather Reports


Display with metric or nautical units.
time (UTC)temp
F
wind
direction
speed
MPH
gust
MPH
rain 1hr
in
rain 24hr
in
rain mn
in
humidity
%
barometer
mb
20260503001337 55 219 0.0 0.0 0.00 0.00 0.00 55 1019.4
20260503000339 56 217 0.0 2.0 0.00 0.00 0.00 54 1019.5
20260502235337 56 217 1.0 2.0 0.00 0.00 0.00 53 1019.5
20260502234342 57 217 0.0 0.0 0.00 0.00 0.00 51 1019.6
20260502232338 58 217 0.0 0.0 0.00 0.00 0.00 50 1019.8
20260502231339 58 217 0.0 0.0 0.00 0.00 0.00 49 1019.8
20260502225337 59 217 2.0 5.0 0.00 0.00 0.00 47 1019.8
20260502224339 59 221 2.0 4.0 0.00 0.00 0.00 47 1019.8
20260502223337 59 199 2.0 3.0 0.00 0.00 0.00 47 1019.8
20260502222339 59 194 2.0 3.0 0.00 0.00 0.00 48 1019.8
20260502221338 58 194 2.0 3.0 0.00 0.00 0.00 49 1019.9
20260502220333 58 194 1.0 3.0 0.00 0.00 0.00 49 1019.9
20260502214330 59 199 1.0 3.0 0.00 0.00 0.00 48 1019.8
20260502213330 60 200 2.0 4.0 0.00 0.00 0.00 47 1019.8
20260502212330 59 234 2.0 4.0 0.00 0.00 0.00 46 1019.9
20260502205330 59 240 0.0 0.0 0.00 0.00 0.00 49 1019.9
20260502202330 61 240 0.0 1.0 0.00 0.00 0.00 46 1019.9
20260502201328 61 240 0.0 2.0 0.00 0.00 0.00 45 1019.9
20260502200327 62 240 0.0 1.0 0.00 0.00 0.00 44 1019.9
20260502195327 62 240 1.0 3.0 0.00 0.00 0.00 43 1019.8
20260502194329 63 241 0.0 0.0 0.00 0.00 0.00 43 1019.8
20260502193327 63 241 0.0 0.0 0.00 0.00 0.00 39 1019.6
20260502192329 63 241 0.0 0.0 0.00 0.00 0.00 38 1019.6
20260502191325 64 241 0.0 0.0 0.00 0.00 0.00 39 1019.6
20260502190326 65 241 0.0 0.0 0.00 0.00 0.00 36 1019.6
20260502184326 67 241 2.0 4.0 0.00 0.00 0.00 32 1019.5
20260502183325 68 239 2.0 4.0 0.00 0.00 0.00 32 1019.5
20260502182326 68 258 3.0 7.0 0.00 0.00 0.00 32 1019.6
20260502181325 69 242 2.0 7.0 0.00 0.00 0.00 42 1019.5
20260502180325 69 311 1.0 2.0 0.00 0.00 0.00 46 1019.5
20260502170320 71 284 3.0 7.0 0.00 0.00 0.00 44 1019.5
20260502164320 70 299 6.0 9.0 0.00 0.00 0.00 42 1019.5
20260502163318 71 275 6.0 9.0 0.00 0.00 0.00 44 1019.6
20260502162320 71 280 5.0 9.0 0.00 0.00 0.00 42 1019.7
20260502160317 71 281 7.0 9.0 0.00 0.00 0.00 39 1020.0
20260502151316 71 249 7.0 12.0 0.00 0.00 0.00 39 1020.3
20260502150318 72 259 7.0 10.0 0.00 0.00 0.00 39 1020.4
20260502130312 72 101 3.0 8.0 0.00 0.00 0.00 40 1021.6
20260502123310 71 338 3.0 8.0 0.00 0.00 0.00 46 1021.9
20260502122312 70 311 6.0 12.0 0.00 0.00 0.00 43 1022.0
20260502115309 70 280 5.0 9.0 0.00 0.00 0.00 48 1022.4
20260502113309 69 288 3.0 9.0 0.00 0.00 0.00 46 1022.6
20260502111307 70 292 2.0 11.0 0.00 0.00 0.00 44 1022.9
20260502105306 68 262 5.0 8.0 0.00 0.00 0.00 45 1023.2
20260502104308 68 257 7.0 11.0 0.00 0.00 0.00 47 1023.3
20260502102307 67 326 4.0 9.0 0.00 0.00 0.00 50 1023.6
20260502101308 67 330 4.0 8.0 0.00 0.00 0.00 49 1023.9
20260502090302 65 296 2.0 4.0 0.00 0.00 0.00 47 1024.5
20260502071257 60 170 0.0 0.0 0.00 0.00 0.00 56 1025.2
20260502070251 59 169 0.0 0.0 0.00 0.00 0.00 56 1025.2
20260502065251 59 169 0.0 0.0 0.00 0.00 0.00 58 1025.2
20260502064250 58 169 0.0 0.0 0.00 0.00 0.00 59 1025.2
20260502063250 57 169 0.0 0.0 0.00 0.00 0.00 59 1025.2
20260502062251 56 169 0.0 0.0 0.00 0.00 0.00 59 1025.1
20260502060250 56 169 0.0 0.0 0.00 0.00 0.00 61 1025.1
20260502055250 55 169 0.0 0.0 0.00 0.00 0.00 63 1025.1
20260502054251 54 169 0.0 0.0 0.00 0.00 0.00 64 1025.1
20260502053248 53 169 0.0 0.0 0.00 0.00 0.00 65 1025.1
20260502052249 52 169 0.0 0.0 0.00 0.00 0.00 64 1025.0
20260502051249 52 169 0.0 0.0 0.00 0.00 0.00 64 1025.0
20260502050249 52 169 0.0 0.0 0.00 0.00 0.00 64 1024.9
20260502045247 51 169 0.0 0.0 0.00 0.00 0.00 65 1024.9
20260502043247 51 169 0.0 0.0 0.00 0.00 0.00 65 1024.9
20260502042245 51 169 0.0 0.0 0.00 0.00 0.00 65 1024.9
20260502041244 51 169 0.0 0.0 0.00 0.00 0.00 63 1025.0
20260502040243 52 169 0.0 0.0 0.00 0.00 0.00 63 1024.9
20260502035240 52 169 0.0 0.0 0.00 0.00 0.00 62 1024.8
20260502034240 52 169 0.0 0.0 0.00 0.00 0.00 62 1024.8
20260502033238 52 169 0.0 0.0 0.00 0.00 0.00 62 1024.9
20260502032237 52 169 0.0 0.0 0.00 0.00 0.00 62 1024.9
20260502031239 52 169 0.0 0.0 0.00 0.00 0.00 61 1024.9
20260502030237 53 169 0.0 0.0 0.00 0.00 0.00 60 1025.0
20260502025235 53 169 0.0 0.0 0.00 0.00 0.00 60 1024.9
20260502024236 53 169 0.0 0.0 0.00 0.00 0.00 60 1024.9
20260502022234 52 169 0.0 0.0 0.00 0.00 0.00 61 1025.1
20260502021234 51 169 0.0 0.0 0.00 0.00 0.00 61 1025.0
20260502020235 52 169 0.0 0.0 0.00 0.00 0.00 59 1025.1
20260502015234 53 169 0.0 0.0 0.00 0.00 0.00 58 1025.2
20260502014233 54 169 0.0 0.0 0.00 0.00 0.00 57 1025.1
20260502013235 54 169 0.0 0.0 0.00 0.00 0.00 57 1025.1
20260502012234 54 169 0.0 0.0 0.00 0.00 0.00 57 1025.1
20260502011234 54 169 0.0 0.0 0.00 0.00 0.00 56 1025.1
20260502010234 54 169 0.0 0.0 0.00 0.00 0.00 57 1025.1
20260502005233 54 169 0.0 0.0 0.00 0.00 0.00 57 1025.1
20260502004234 54 169 0.0 0.0 0.00 0.00 0.00 57 1025.1
20260502003229 53 169 0.0 1.0 0.00 0.00 0.00 59 1025.1